Zurück zum Katalog

STARLINK-31146

AktivKommunikationVLEO
NORAD 58769·PAYLOAD·🇺🇸 United States

Gestartet Jan 14, 2024 von Vandenberg Space Force Base

Loading…

Nächste Überflüge (nächste 24 Stunden)

TLE

AktuellSource: CelesTrak SupGP

Epoche: Sep 14, 2026, 21:16 UTC

1 58769C 24011E   26257.88659722  .00025498  00000+0  75322-3 0  2578
2 58769  53.1587 212.0738 0001468  91.4892  20.1636 15.34382666    14

Verfolge STARLINK-31146 in Echtzeit mit AllMySat

Download on the App Store